TimeMST,TemperatureF,Dew PointF,Humidity,Sea Level PressureIn,VisibilityMPH,Wind Direction,Wind SpeedMPH,Gust SpeedMPH,PrecipitationIn,Events,Conditions,WindDirDegrees,DateUTC
12:58 AM,28.4,23.4,81,30.22,10.0,NW,17.3,-,N/A,,Clear,310,2013-02-24 07:58:00
1:58 AM,28.4,23.4,81,30.25,10.0,NW,15.0,-,N/A,,Clear,310,2013-02-24 08:58:00
2:58 AM,25.9,21.4,83,30.25,10.0,WNW,12.7,-,N/A,,Clear,300,2013-02-24 09:58:00
3:58 AM,27.9,21.6,77,30.26,10.0,NW,13.8,-,N/A,,Clear,310,2013-02-24 10:58:00
4:58 AM,25.2,19.8,80,30.29,10.0,WNW,8.1,-,N/A,,Clear,300,2013-02-24 11:58:00
5:58 AM,25.5,20.5,81,30.31,10.0,NW,15.0,-,N/A,,Clear,310,2013-02-24 12:58:00
6:58 AM,25.5,19.9,79,30.32,10.0,NW,12.7,-,N/A,,Clear,320,2013-02-24 13:58:00
7:58 AM,24.4,20.1,84,30.35,10.0,North,5.8,-,N/A,,Clear,350,2013-02-24 14:58:00
8:58 AM,27.5,21.7,79,30.37,10.0,NNW,11.5,-,N/A,,Clear,340,2013-02-24 15:58:00
9:58 AM,32.5,22.6,67,30.37,10.0,NNW,13.8,-,N/A,,Clear,340,2013-02-24 16:58:00
10:58 AM,35.1,22.3,60,30.36,10.0,NNW,23.0,-,N/A,,Clear,340,2013-02-24 17:58:00
11:58 AM,38.1,21.7,52,30.37,10.0,NW,20.7,-,N/A,,Clear,320,2013-02-24 18:58:00
12:58 PM,39.0,21.7,50,30.37,10.0,NW,21.9,27.6,N/A,,Clear,310,2013-02-24 19:58:00
1:58 PM,41.0,20.3,44,30.33,10.0,NW,20.7,27.6,N/A,,Clear,320,2013-02-24 20:58:00
2:58 PM,41.2,18.9,41,30.32,10.0,NW,16.1,25.3,N/A,,Clear,310,2013-02-24 21:58:00
3:58 PM,42.1,19.0,40,30.31,10.0,NNW,16.1,-,N/A,,Clear,330,2013-02-24 22:58:00
4:58 PM,41.7,18.3,39,30.32,10.0,NNW,13.8,-,N/A,,Clear,330,2013-02-24 23:58:00
5:58 PM,40.5,20.1,44,30.31,10.0,NNW,10.4,-,N/A,,Clear,330,2013-02-25 00:58:00
6:58 PM,36.0,21.2,55,30.33,10.0,NNW,5.8,-,N/A,,Clear,340,2013-02-25 01:58:00
7:58 PM,30.2,19.8,65,30.34,10.0,North,1.2,-,N/A,,Clear,360,2013-02-25 02:58:00
8:58 PM,27.7,19.8,72,30.32,10.0,East,1.2,-,N/A,,Clear,90,2013-02-25 03:58:00
9:58 PM,30.7,19.4,63,30.31,10.0,SSE,3.5,-,N/A,,Clear,160,2013-02-25 04:58:00
10:58 PM,24.8,18.5,77,30.31,10.0,SSE,2.3,-,N/A,,Clear,150,2013-02-25 05:58:00
11:58 PM,22.6,17.1,79,30.29,10.0,SSE,8.1,-,N/A,,Clear,150,2013-02-25 06:58:00